Location: Unspecified
(35.7250°N, 0.0000°E)
Time: 00:35:07
(UTC+00:00)

Vanguard 1 - Pass Details

Date: 03 July 2019
Orbit: 653 x 3830 km, 34.3° (Epoch: 20 July)

Event Time Altitude Azimuth Distance (km) Brightness Sun altitude
Rises 23:56:26 0° 244° (WSW) 7,682 14.4 -31.2°
Reaches altitude 10° 00:01:25 10° 243° (WSW) 6,822 14.1 -31.3°
Maximum altitude 00:25:09 76° 162° (SSE) 3,599 12.6 -31.1°
Drops below altitude 10° 00:42:30 10° 81° (E) 5,242 13.9 -30.6°
Sets 00:45:44 0° 80° (E) 5,915 14.3 -30.5°
